User: anonymous   Login
Location: San Antonio
(29.4240°N, 98.4930°W)
Time: 15:11:26
(UTC-05:00)
Language:

BlueWalker 3 - Orbit

View from above orbital plane
View from above orbital plane
View from above satellite
View from above satellite

Ground track
Ground track

The orbit data is extracted from the following two-line orbital elements,

1 53807U 22111AL  24193.94759422  .00007094  00000-0  28040-3 0  9998
2 53807  53.2382  79.4872 0008837 158.6853 201.4517 15.26559930102016
Epoch (UTC): 11 July 2024 22:44:32
Eccentricity: 0.0008837
inclination: 53.2382°
perigee height: 480 km
apogee height: 492 km
right ascension of ascending node: 79.4872°
argument of perigee: 158.6853°
revolutions per day: 15.26559930
mean anomaly at epoch: 201.4517°
orbit number at epoch: 10201

The dashed part of the orbit path shows where the satellite is in the earth's shadow,  

DLR